Find Starlink 11488

NORAD ID: 62222 Int'l Des: 2024-231 Owner: SPXS Country: US Constellation: starlink operational
LEOCIRCULAR

Live-Position

3D-Globus wird geladen...

Über Starlink 11488

Beschreibung wird geladen...

Nächste Überflüge

Passes for default location (London). Set your location on the main map for personalized predictions.

Höhenverlauf

Loading altitude history...

Zweizeiliger Elementsatz

1 62222U 24231E 26127.28993054 .00229759 00000-0 18363-2 0 9991
2 62222 53.1574 172.5111 0001529 128.0908 232.0248 15.69880517 82612
Epoch: 7. Mai 2026 • Age: 7 hours

Aktueller Status

Höhe 365.7 km
Geschwindigkeit 7.69 km/s
Subsatellitenpunkt -24.24°S, 64.19°W
Startdatum 5. Dez. 2024
Alter 1.4 years
Typ internet

Technische Details

Klassifizierung Payload
Masse 960.00 kg
Trockenmasse 910.00 kg
Gesamtmasse 960.00 kg
Länge 0.30 m
Durchmesser 4.10 m
Spannweite 29.00 m
Form Box + pan
Hersteller SPXS
Bus-Typ Starlink V2MD
Phasenstatus In Orbit
Besitzer/Staat SPXS/US

Most Searched